Location: Little Baddow
(51.7333°N, 0.5667°E)
Time: 06:53:25
(UTC+00:00)

Cosmos 2360 Rocket - Pass Details

Date: 08 November 2025
Orbit: 833 x 843 km, 71.0° (Epoch: 11 December)

Event Time Altitude Azimuth Distance (km) Brightness Sun altitude
Exits shadow 03:59:26 55° 360° (N) 1,011 2.5 -28.7°
Drops below altitude 10° 04:03:59 10° 27° (NNE) 2,474 5.0 -28.0°
Sets 04:06:28 0° 30° (NNE) 3,411 5.9 -27.6°
